sat.trackr.live / text

‹ back to catalog

OPTUS D1

NORAD 29495 · 2006-043B

PAYLOAD ACTIVE UNKNOWN

§ Identity

Operator
Country
AUS
Launch date
2006-10-13
Launch site
FRGUI
Launch vehicle
Mass (kg)
RCS (m²)
3.98

Purposes: comms

External: N2YO · Heavens-Above · Gunter

§ Orbital elements

Epoch: 2026-05-24T21:37:17.526720Z

Period
1,436.09 min
Inclination
2.9774°
Eccentricity
0.0003730
Mean motion
1.00272104 rev/d
Perigee alt
35,770.8 km
Apogee alt
35,802.2 km
Semi-major
42,164.6 km
B*
0.0000e+0
RAAN
79.9307°
Arg perigee
338.5854°
Mean anomaly
300.2848°
Rev number
7,188

§ Raw data

OPTUS D11 29495U 06043B   26144.90089730 -.00000186  00000+0  00000+0 0  99992 29495   2.9774  79.9307 0003730 338.5854 300.2848  1.00272104 71880

JSON: /api/v1/satellites/29495 · /tle

For live sub-satellite position, see the globe view (requires WebGL).

§ Visibility from observer

Set your observer location to see the next 7 days of passes ≥ 10°. The values pass through the URL so the page stays shareable.

No JS? Fill the form by hand. The geolocation button needs JavaScript.